User: anonymous   Login
Location: Unspecified
(47.8330°N, 0.0000°E)
Time: 17:59:45
(UTC+00:00)
Language:

RS-15 - Orbit

View from above orbital plane
View from above orbital plane
View from above satellite
View from above satellite

Ground track
Ground track

The orbit data is extracted from the following two-line orbital elements,

1 23439U 94085A   19237.45296833 -.00000059  00000-0 -46567-3 0  9996
2 23439  64.8196   6.5443 0145870 100.0955 261.6460 11.27568487 15699
Epoch (UTC): 25 August 2019 10:52:16
Eccentricity: 0.0145870
inclination: 64.8196°
perigee height: 1900 km
apogee height: 2145 km
right ascension of ascending node: 6.5443°
argument of perigee: 100.0955°
revolutions per day: 11.27568487
mean anomaly at epoch: 261.6460°
orbit number at epoch: 1569

The dashed part of the orbit path shows where the satellite is in the earth's shadow,  

DLR